Tegucigalpa, Honduras

11:12 PM CST en Noviembre 21, 2017 (GMT -0600)
Toncontin International

Tiempo Historia de MHTG - Mayo, 2017

Change the Weather History Date:

Viernes, Mayo 19, 2017

  Actual Average Record
Temperature  
Temperatura media 78 ° F -  
Temperatura máxima 87 ° F 81 ° F 92 ° F (2016)
Temperatura mínima 68 ° F 64 ° F 59 ° F (2008)
Cooling Degree Days 12    
Growing Degree Days 28 (Base 50)    
Moisture  
Punto de rocío 67 ° F    
Average Humidity 75    
Maximum Humidity 100    
Minimum Humidity 38    
Precipitación  
Precipitación 0.24 pul 0.20 pul - ()
Presión al nivel del mar  
Presión al nivel del mar 29.92 pul    
Viento  
Velocidad del viento 4 mph ()    
Velocidad máxima del viento 9 mph    
Max Gust Speed -    
Visibilidad 5.4 Millas    
Eventos Lluvia , Tormenta    
Averages and records for this station are not official NWS values.
T = Trace of Precipitation, MM = Missing Value Source: Averaged Metar Reports

Daily Weather History Graph

Daily Weather History Graph

Search for Another Location

Airport or City:

Trip Planner

Search our weather history database for the weather conditions in past years. The results will help you decide how hot, cold, wet, or windy it might be!

Date:

Astronomía

May. 19, 2017 Salida Puesta
Hora real 5:20 AM CST 6:09 PM CST
Crepúsculo civil 4:58 AM CST 6:32 PM CST
Crepúsculo náutico 4:31 AM CST 6:59 PM CST
Crepúsculo astronómico 4:03 AM CST 7:27 PM CST
Luna 12:26 AM CST (5/19) 12:27 PM CST (5/19)
Horas de luz 13h 34m
Horas de luz
12h 49m
Cuarto menguante, 42% of the Moon is Illuminated
May 19
Cuarto menguante
May 25
Nueva
Jun 1
Cuarto creciente
Jun 9
Luna llena
Jun 17
Cuarto menguante

Hourly Weather History & Observations

Hora (CST) Temp. Índice de calor Punto de rocío Humedad Presión Visibilidad Wind Dir Velocidad del viento Velocidad de ráfagas Precip Eventos Condiciones
12:00 AM 69 ° F - 67 ° F 91% 29.91 pul 5 mi SSO 6.9 mph - - Lluvia , Tormenta Tormenta
12:00 AM 69.8 ° F - 66.2 ° F 88% 30.01 pul 5.0 mi SSO 6.9 mph - N/A Lluvia , Tormenta Tormenta débil
1:00 AM 68.0 ° F - 68.0 ° F 100% 29.98 pul 5.0 mi SSO 2.3 mph - N/A   Muy nublado
2:00 AM 68.0 ° F - 68.0 ° F 100% 29.98 pul 5.0 mi Sin viento Sin viento - N/A   Muy nublado
3:00 AM 68 ° F - 67 ° F 98% 29.87 pul 5 mi Sin viento Sin viento - -   Neblina
3:00 AM 68.0 ° F - 68.0 ° F 100% 29.98 pul 5.0 mi Sin viento Sin viento - N/A   Nubes dispersas
4:00 AM 68.0 ° F - 68.0 ° F 100% 29.98 pul 5.0 mi Sin viento Sin viento - N/A   Muy nublado
5:00 AM 68.0 ° F - 68.0 ° F 100% 29.98 pul 5.0 mi Sin viento Sin viento - N/A   Muy nublado
6:00 AM 68 ° F - 68 ° F 98% 29.88 pul 4 mi Sin viento Sin viento - -   Neblina
6:00 AM 68.0 ° F - 68.0 ° F 100% 29.98 pul 3.7 mi Sin viento Sin viento - N/A   Muy nublado
7:00 AM 69.8 ° F - 68.0 ° F 94% 30.01 pul 5.0 mi Sin viento Sin viento - N/A   Muy nublado
8:00 AM 73.4 ° F - 69.8 ° F 88% 30.01 pul 2.5 mi Sin viento Sin viento - N/A   Muy nublado
9:00 AM - - - %  pul 3 mi Sin viento Sin viento - -  
9:00 AM 75.2 ° F - 69.8 ° F 83% 30.01 pul 3.1 mi Sin viento Sin viento - N/A   Muy nublado
10:00 AM 78.8 ° F - 69.8 ° F 74% 29.98 pul 5.0 mi Sur 4.6 mph - N/A   Nubes dispersas
11:00 AM 82.4 ° F 85.4 ° F 68.0 ° F 62% 29.95 pul 6.2 mi SSE 6.9 mph - N/A   Nubes dispersas
12:00 PM 83 ° F - 66 ° F 46% 29.75 pul 6 mi Sur 6.9 mph - -   Bruma
12:00 PM 84.2 ° F 86.6 ° F 66.2 ° F 55% 29.95 pul 6.2 mi Sur 6.9 mph - N/A   Nubes dispersas
1:00 PM 86.0 ° F 87.3 ° F 64.4 ° F 48% 29.92 pul 6.2 mi SE 9.2 mph - N/A   Nubes dispersas
2:00 PM 86.0 ° F 86.1 ° F 60.8 ° F 43% 29.89 pul 6.2 mi SSO 6.9 mph - N/A   Muy nublado
3:00 PM 85 ° F - 63 ° F 38% 29.66 pul 7 mi SSE 6.9 mph - -   Muy nublado
3:00 PM 86.0 ° F 86.6 ° F 62.6 ° F 45% 29.86 pul 6.2 mi SSE 6.9 mph - N/A   Muy nublado
4:00 PM 84.2 ° F 85.0 ° F 62.6 ° F 48% 29.86 pul 6.2 mi ESE 5.8 mph - N/A   Nubes dispersas
5:00 PM 80.6 ° F 83.2 ° F 68.0 ° F 65% 29.86 pul 6.2 mi Sur 6.9 mph - N/A   Nubes dispersas
6:00 PM 79 ° F - 66 ° F 55% 29.71 pul 7 mi SSO 9.2 mph - -   Bruma
6:00 PM 78.8 ° F - 66.2 ° F 65% 29.89 pul 6.2 mi SSO 9.2 mph - N/A   Nubes dispersas
7:00 PM 77.0 ° F - 68.0 ° F 74% 29.92 pul 6.2 mi Sur 6.9 mph - N/A   Nubes dispersas
7:03 PM 75.2 ° F - 68.0 ° F 78% 29.92 pul 6.2 mi ESE 6.9 mph - N/A Tormenta Tormenta
8:00 PM 75.2 ° F - 68.0 ° F 78% 29.95 pul 6.2 mi Este 4.6 mph - N/A Tormenta Tormenta
9:00 PM 73 ° F - 66 ° F 72% 29.85 pul 6 mi Sur 4.6 mph - - Tormenta Tormenta
9:00 PM 73.4 ° F - 66.2 ° F 78% 29.98 pul 6.2 mi Sur 4.6 mph - N/A Tormenta Tormenta
10:00 PM 73.4 ° F - 64.4 ° F 73% 29.98 pul 6.2 mi Sur 4.6 mph - N/A Tormenta Tormenta
11:00 PM 73.4 ° F - 66.2 ° F 78% 30.01 pul 6.2 mi Sur 6.9 mph - N/A   Nubes dispersas